User: anonymous
Location: Caltech
(34.1382°N, 118.1253°W)
Time: 20:34:13
(UTC-07:00)
Language:

Cosmos 1025 Rocket - Orbit

View from above orbital plane
View from above orbital plane
View from above satellite
View from above satellite

Ground track
Ground track

The orbit data is extracted from the following two-line orbital elements,

1 10974U 78067B   14234.65181120  .00000270  00000-0  27533-4 0  3770
2 10974 082.4801 063.9584 0018734 150.6350 253.4968 14.86627910954575
Epoch (UTC): 22 August 2014 15:38:36
Eccentricity: 0.0018734
inclination: 82.4801°
perigee height: 595 km
apogee height: 621 km
right ascension of ascending node: 63.9584°
argument of perigee: 150.6350°
revolutions per day: 14.86627910
mean anomaly at epoch: 253.4968°
orbit number at epoch: 95457

The dashed part of the orbit path shows where the satellite is in the earth's shadow,  

DLR